Skip Page Navigation
NASA JPL Caltech
NASA Logo - Jet Propulsion Laboratory + View the NASA Portal
+ Center for Near-Earth Object Studies
JPL Home Earth Solar System Stars & Galaxies Technology
JPL Solar System Dynamics
BODIES ORBITS EPHEMERIDES TOOLS PHYSICAL DATA DISCOVERY FAQ SITE MAP
JPL Small-Body Database Browser
Search: [ help ]  
187098 (2005 QS20)
Classification: Main-belt Asteroid          SPK-ID: 2187098
Ephemeris | Orbit Diagram | Orbital Elements | Mission Design | Physical Parameters | Discovery Circumstances | Close-Approach Data ]

[ show orbit diagram ]
Orbital Elements at Epoch 2459200.5 (2020-Dec-17.0) TDB
Reference: JPL 19 (heliocentric ecliptic J2000)
 Element Value Uncertainty (1-sigma)   Units 
e .182019023973763 3.9934e-08  
a 2.791548451392108 1.6699e-08 au
q 2.283433526894247 1.0917e-07 au
i 5.8841887771176 5.5384e-06 deg
node 129.1602652158828 3.6877e-05 deg
peri 244.3843029084423 4.0025e-05 deg
M 83.70485253641273 1.3512e-05 deg
tp 2458804.391358711888
(2019-Nov-16.89135871)
6.4225e-05 TDB
period 1703.594314340232
4.66
1.5287e-05
4.185e-08
d
yr
n .211317915873311 1.8962e-09 deg/d
Q 3.299663375889969 1.9739e-08 au
  Orbit Determination Parameters
   # obs. used (total)      341  
   data-arc span      8429 days (23.08 yr)  
   first obs. used      1998-01-22  
   last obs. used      2021-02-19  
   planetary ephem.      DE441  
   SB-pert. ephem.      SB441-N16  
   condition code      0  
   norm. resid. RMS      .52215  
   source      ORB  
   producer      Otto Matic  
   solution date      2021-Apr-13 21:54:00  

Additional Information
 Earth MOID = 1.28971 au 
 Jupiter MOID = 2.18402 au 
 T_jup = 3.297 
[ hide covariance matrix ]
Orbital Elements at Epoch 2457464.5 (2016-Mar-17.0) TDB
Reference: JPL 19 (heliocentric ecliptic J2000)
 Element Value Uncertainty (1-sigma)   Units 
e .1836963085960709 4.0858e-08  
q 2.277048859121831 1.1206e-07 au
tp 2457094.457013371577
(2015-Mar-12.95701337)
6.5075e-05 TDB
node 129.456478854741 3.6849e-05 deg
peri 242.9187604231419 3.9843e-05 deg
i 5.888100642099356 5.5455e-06 deg
  Orbit Determination Parameters
   # obs. used (total)      341  
   data-arc span      8429 days (23.08 yr)  
   first obs. used      1998-01-22  
   last obs. used      2021-02-19  
   planetary ephem.      DE441  
   SB-pert. ephem.      SB441-N16  
   condition code      0  
   norm. resid. RMS      .52215  
   source      ORB  
   producer      Otto Matic  
   solution date      2021-Apr-13 21:54:00  

Additional Information
 Jupiter MOID = 2.18402 au 
 T_jup = 3.297 
Orbit Covariance (6×6)
  e q tp node peri i
e 1.669370804653107E-15 -4.547306641378062E-15 -1.137483870413514E-12 1.055377371337485E-14 -2.425875955723495E-13 -3.255064413108472E-15
q -4.547306641378062E-15 1.255654470802225E-14 2.937626059065902E-12 -2.913030230954599E-14 6.3135143227021E-13 9.732134529456911E-15
tp -1.137483870413514E-12 2.937626059065902E-12 4.234735454459953E-9 -1.040775838678433E-11 9.949176989443835E-10 5.17108678730149E-12
node 1.055377371337485E-14 -2.913030230954599E-14 -1.040775838678433E-11 1.357879488512414E-9 -1.352618944437029E-9 2.689157550770402E-11
peri -2.425875955723495E-13 6.3135143227021E-13 9.949176989443835E-10 -1.352618944437029E-9 1.587487624481099E-9 -2.568959257503276E-11
i -3.255064413108472E-15 9.732134529456911E-15 5.17108678730149E-12 2.689157550770402E-11 -2.568959257503276E-11 3.07529166451808E-11

Ephemeris | Orbit Diagram | Orbital Elements | Mission Design | Physical Parameters | Discovery Circumstances | Close-Approach Data ]

Physical Parameter Table
Parameter Symbol Value Units Sigma Reference Notes
absolute magnitude H 16.19   n/a MPCxxxxx  

187098 (2005 QS20)          Discovered 2005-Aug-26 by LONEOS at Anderson Mesa
Reference: 20080520/Numbers.arcLast Updated: 2008-05-22

[ hide close-approach data ]
Close-Approach Data   ...sorted by Date/Time (TDB)
Date/Time (TDB) Time Uncertainty
(days_HH:MM)
Body Nominal Distance (au) Minimum Distance (au) Maximum Distance (au) V-relative (km/s) V-infinity (km/s) JD (TDB) Time Uncertainty (minutes) Semi-major axis (km) Semi-minor axis (km) range-LOV angle (deg) N-sigma BP Orbit Ref. Reference Modified
1922-Dec-26 16:15 00:05 Europ 0.0303959958294088 0.0303697742979925 0.0304222492561519 3.39940233265709 3.39940222979561 2423415.177288434 4.98438770720398 2031.56970964373 89.209687185177 -50.0105923548444 39042.0000899181 T 19 CATAB v2.0f-lin.ifort 2021-Apr-13 21:54:01 2021-Apr-13 21:54
1946-Feb-11 03:45 00:03 David 0.0123519531588269 0.0123250682723879 0.0123788585940976 4.42684081898586 4.42684054270329 2431862.656062406 2.56161840231103 1558.13140117101 59.5758991838881 -30.691290609149 15849.9865373907 T 19 CATAB v2.0f-lin.ifort 2021-Apr-13 21:54:01 2021-Apr-13 21:54
Ephemeris | Orbit Diagram | Orbital Elements | Mission Design | Physical Parameters | Discovery Circumstances | Close-Approach Data ]
ABOUT SSD CREDITS/AWARDS PRIVACY/COPYRIGHT GLOSSARY LINKS
FirstGov 2021-Jun-18 13:04 UT
(server date/time)  
NASA Home Page
Site Manager:   Ryan S. Park
Webmaster  Alan B. Chamberlin